Location: ?????????
(55.4390°N, 38.0817°E)
Time: 04:15:51
(UTC+00:00)

Daily predictions for brighter satellites

Satellite Brightness Start Highest point End
(mag) Time Altitude Azimuth Time Altitude Azimuth Time Altitude Azimuth
Genesis I 3.9 00:04:45 50° N 00:04:45 50° N 00:07:54 10° NE
Timation 1 Rocket 4.2 00:00:59 10° NW 00:07:01 79° WSW 00:13:01 10° SSE
Cosmos 2082 4.1 00:01:34 10° NW 00:05:52 45° WNW 00:05:52 45° WNW
AQUA 3.8 00:05:54 10° N 00:10:38 65° WNW 00:10:41 65° WNW
CZ-4C R/B 3.6 00:06:34 12° WNW 00:11:59 44° N 00:19:02 10° E
Cosmos 1821 Rocket 3.9 00:06:27 10° NNW 00:12:48 80° W 00:15:30 37° S
Cosmos 1470 Rocket 3.5 00:08:58 10° NNW 00:13:26 87° E 00:13:45 77° SSE
Cosmos 1777 Rocket 3.9 00:08:31 10° NNW 00:13:29 62° W 00:13:29 62° W
Cosmos 2369 Rocket 4.1 00:10:56 14° WNW 00:13:54 21° NNW 00:18:10 10° NNE
NOSS 2-1 (C) 4.1 00:15:18 41° NNW 00:15:18 41° NNW 00:19:08 10° NE
Cosmos 1992 Rocket 3.9 00:14:43 61° W 00:15:19 67° WNW 00:20:33 10° NNE
CZ-4B R/B 3.4 00:12:41 10° NNE 00:17:47 86° WNW 00:18:48 59° SSW
NOSS 2-2 (C) 4.4 00:18:35 51° WSW 00:18:57 52° SW 00:25:58 10° SSE
NOSS 2-1 (D) 4.1 00:20:12 39° NNW 00:20:15 39° NNW 00:24:11 10° NE
Cosmos 1697 Rocket 2.9 00:19:51 42° S 00:21:38 65° ESE 00:27:13 10° NE
Cosmos 972 Rocket 4.2 00:21:58 40° SSE 00:23:29 60° ESE 00:28:25 10° NNE
Meteor 1-28 Rocket 4.4 00:25:30 32° NNW 00:25:30 32° NNW 00:27:40 10° NNW
Cosmos 1934 Rocket 3.9 00:18:14 10° N 00:24:21 81° E 00:30:25 10° SSE
ERS-2 4.4 00:22:39 10° ESE 00:25:45 26° ENE 00:28:53 10° N
SL-24 R/B 4.4 00:24:10 34° SSE 00:26:23 86° WSW 00:32:02 10° NNW
Cosmos 1980 Rocket 3.1 00:23:49 24° SSE 00:26:46 43° ESE 00:32:06 10° NE
Cosmos 2263 Rocket 2.2 00:22:53 10° NNW 00:28:35 80° NE 00:34:16 10° SE
Meteor 1-25 Rocket 4.2 00:25:00 10° NNW 00:30:45 61° W 00:32:39 40° SSW
Meteor 1-26 Rocket 4.3 00:29:01 28° S 00:31:50 68° E 00:37:14 10° NNE
Cosmos 220 Rocket 3.9 00:31:47 62° WNW 00:31:58 63° WNW 00:36:14 10° NNE
ATLAS CENTAUR R/B 3.8 00:16:29 10° W 00:32:30 80° N 00:38:07 10° E
Cosmos 1844 Rocket 4.3 00:29:04 10° NNW 00:34:11 34° NE 00:39:19 10° ESE
Cosmos 405 4.1 00:37:32 33° NNW 00:37:32 33° NNW 00:39:59 10° N
Cosmos 1515 Rocket 3.8 00:35:47 35° S 00:37:33 67° E 00:41:59 10° NNE
Cosmos 1933 3.3 00:37:52 65° W 00:38:01 66° WNW 00:42:07 10° N
Cosmos 1356 3.4 00:35:12 10° NNW 00:38:28 78° N 00:38:28 78° N
Cosmos 1602 3.8 00:38:19 10° NNW 00:41:40 56° WNW 00:41:40 56° WNW
ADEOS II 2.1 00:37:41 10° NNE 00:42:53 61° WNW 00:44:28 42° SW
SL-16 R/B 4.4 00:38:51 10° SSE 00:42:58 21° ESE 00:47:06 10° NE
Cosmos 1633 Rocket 4.3 00:40:20 10° NNW 00:42:58 27° WNW 00:42:58 27° WNW
Cosmos 1937 Rocket 4.4 00:39:27 10° NNW 00:44:30 50° NE 00:49:29 10° SE
Nadezhda 3 Rocket 3.9 00:42:12 32° SSW 00:45:13 75° WNW 00:51:25 10° N
Cosmos 2227 4.1 00:40:47 10° NW 00:46:29 78° WSW 00:52:07 10° SSE
Cosmos 1328 Rocket 3.5 00:46:57 51° SW 00:47:54 66° WNW 00:52:21 10° N
ARIANE 5 R/B 2.5 00:43:15 10° NNE 00:48:25 86° ESE 00:51:03 29° SSW
Cosmos 1500 3.4 00:46:09 10° N 00:50:02 72° ENE 00:53:49 10° SSE
Cosmos 1151 Rocket 3.1 00:49:41 50° WSW 00:50:22 57° WNW 00:54:42 10° N
Cosmos 1933 Rocket 3.5 00:46:17 10° NNW 00:50:37 61° W 00:51:47 43° SSW
Cosmos 1605 Rocket 4.1 00:44:24 10° N 00:50:51 83° E 00:57:16 10° SSE
USA 305 3.6 00:51:12 36° S 00:52:03 41° SSE 00:56:03 10° E
Cosmos 1535 Rocket 4.5 00:45:50 10° NNW 00:52:13 74° W 00:58:35 10° S
IDEFIX/ARIANE 42P 2.7 00:47:04 10° NNE 00:52:23 76° ESE 00:56:03 20° S
Cosmos 1656 3.9 00:51:02 37° WSW 00:52:57 55° NW 00:58:27 10° NNE
IRS-1D 4.0 00:48:02 10° N 00:53:12 49° WNW 00:54:55 36° WSW
Meteor 1-14 Rocket 4.1 00:49:02 10° NNW 00:54:39 66° W 01:00:07 10° S
Cosmos 1812 4.2 00:51:13 10° SSE 00:54:45 36° E 00:58:19 10° NNE
Cosmos 1666 4.0 00:51:54 10° N 00:55:35 42° ENE 00:59:14 10° SE
USA 306 3.6 00:55:13 36° S 00:56:12 42° SSE 01:00:15 10° E
ASTEX 1 3.3 00:53:34 10° N 00:58:35 82° W 01:01:52 22° SSW
CZ-2C R/B 4.0 00:54:21 10° NNE 00:59:03 35° E 01:03:47 10° SSE
PKM 4.1 00:57:45 34° W 00:59:20 56° SSW 01:02:43 10° SE
Meteor 1-5 Rocket 4.1 00:54:49 10° NNW 01:00:10 86° ENE 01:05:34 10° SSE
NOSS 3-4 (A) 3.8 00:53:52 10° NW 01:00:37 83° NE 01:08:09 10° SE
NOSS 3-4 (C) 3.8 00:53:59 10° NW 01:00:43 82° NE 01:08:15 10° SE
CZ-4C R/B 2.9 00:58:58 14° SSE 01:01:59 86° WSW 01:05:34 10° NNW
CBERS-1 4.5 00:57:37 10° N 01:02:27 43° WNW 01:04:09 32° WSW
Cosmos 2228 Rocket 3.3 01:02:04 15° S 01:05:37 68° E 01:10:01 10° NNE
IRS-1C 4.2 01:03:31 10° NNE 01:08:46 58° WNW 01:11:32 28° SW
USA 267 3.5 01:02:23 10° ENE 01:08:54 63° SSE 01:13:06 23° SW
CZ-2D R/B 3.4 01:05:05 10° NNE 01:09:18 81° WNW 01:11:40 26° SSW
Cosmos 1869 Rocket 3.4 01:05:38 10° NNW 01:10:01 87° W 01:14:22 10° S
SL-16 R/B 4.4 01:15:09 12° WNW 01:15:09 12° WNW 01:16:33 10° WNW
CZ-2D R/B 3.6 01:13:03 10° N 01:17:00 22° NW 01:18:49 18° WNW
Cosmos 1238 Rocket 4.2 01:11:28 10° NNW 01:17:54 54° W 01:23:57 10° SSW
SJ 16-02 1.4 01:16:23 10° NNW 01:20:40 52° WSW 01:24:57 10° S
CZ-2C R/B 2.6 01:18:10 10° NNE 01:21:58 89° ESE 01:24:49 17° SSW
PAYLOAD A 4.5 01:18:11 10° NNE 01:22:51 55° E 01:27:26 10° S
PSLV R/B 4.3 01:19:31 10° NNE 01:23:39 50° E 01:27:44 10° S
USA 307 3.3 01:21:48 28° SW 01:23:45 52° SSE 01:27:54 10° E
Resurs 1-4 Rocket 3.7 01:20:22 10° N 01:24:00 19° NW 01:25:56 16° WNW
Cosmos 44 3.5 01:21:10 21° SSW 01:24:06 62° SE 01:28:47 10° NE
Cosmos 2278 3.7 01:20:29 21° SW 01:24:24 82° NW 01:30:09 10° NNE
ATLAS 2AS CENTAUR R/B 2.9 01:16:53 10° NW 01:24:39 89° NE 01:31:47 10° SE
Cosmos 1782 3.1 01:23:31 29° SW 01:25:09 46° WNW 01:29:05 10° N
Cosmos 990 Rocket 3.9 01:20:38 10° NNW 01:25:48 67° WSW 01:30:57 10° SSE
USA 308 3.3 01:24:51 27° SW 01:26:55 54° SSE 01:31:05 10° E
Cosmos 2100 Rocket 4.4 01:20:45 10° N 01:27:08 69° ENE 01:33:30 10° SSE
Meteor 1-4 Rocket 3.2 01:25:58 10° S 01:29:22 54° E 01:32:51 10° NNE
Cosmos 389 Rocket 2.7 01:28:34 30° SW 01:29:59 49° WNW 01:33:31 10° N
Cosmos 1606 4.5 01:29:56 16° WNW 01:30:07 16° WNW 01:32:34 10° NNW
Cosmos 1727 Rocket 4.3 01:25:33 10° S 01:31:51 71° E 01:38:09 10° NNE
Lacrosse 5 1.9 01:29:27 24° WSW 01:32:36 77° SSE 01:37:40 10° ENE
USA 276 3.2 01:32:02 27° SSW 01:32:51 31° S 01:35:45 10° ESE
Cosmos 2369 3.9 01:29:32 22° WSW 01:33:12 57° NW 01:38:53 10° NNE
H-2A R/B 2.3 01:29:40 10° S 01:33:56 49° W 01:38:19 10° NNW
ATLAS 5 CENTAUR R/B 2.9 01:30:41 15° WNW 01:34:01 36° N 01:38:56 10° ENE
Meteor 1-11 Rocket 3.7 01:31:43 10° NNW 01:37:35 77° W 01:43:16 10° S
ADEOS Rocket 3.0 01:31:23 10° SSE 01:38:04 84° WSW 01:44:05 10° NNW
Cosmos 1339 Rocket 4.5 01:31:59 10° SSW 01:38:16 73° WNW 01:44:28 10° N
ERBS 4.1 01:38:07 12° SSW 01:40:31 25° SE 01:43:21 10° E
ALOS 4.0 01:39:02 10° NNE 01:43:19 34° E 01:47:35 10° SSE
Cosmos 1459 Rocket 4.1 01:37:15 10° N 01:43:24 79° ENE 01:49:28 10° SSE
Cosmos 972 4.4 01:41:42 15° SW 01:45:44 62° WNW 01:50:37 10° NNE
Landsat 5 4.1 01:42:58 10° SSW 01:47:11 38° W 01:51:22 10° NNW
USA 234 4.0 01:42:07 10° SSE 01:47:41 29° SW 01:53:16 10° WNW
MSX 3.9 01:42:40 10° NNE 01:48:25 64° WNW 01:54:06 10° SSW
Spot 4 Rocket 4.3 01:43:42 10° N 01:48:40 49° WNW 01:53:11 12° SW
CZ-4B R/B 1.2 01:49:19 10° SSE 01:52:30 80° WSW 01:55:49 10° NNW
Meteor 1-27 Rocket 4.1 01:49:10 10° S 01:55:05 74° E 02:00:59 10° NNE
ERS-2 2.6 01:55:45 10° S 01:59:11 38° W 02:02:40 10° NNW
Cosmos 1484 Rocket 4.1 01:55:26 10° NNE 01:59:16 44° E 02:03:07 10° S
Cosmos 2298 Rocket 4.5 01:54:27 10° NNW 01:59:48 67° ENE 02:05:05 10° SE
Cosmos 2369 Rocket 4.5 01:56:27 10° NW 02:00:08 17° N 02:03:50 10° NE
COSMO-SKYMED 1 3.5 01:55:56 10° SE 02:00:11 54° ENE 02:04:26 10° N
Cosmos 1898 Rocket 3.9 01:55:30 10° NW 02:00:24 42° WSW 02:05:20 10° S
Cosmos 2360 Rocket 3.9 01:55:43 10° S 02:00:46 34° ESE 02:05:50 10° NE
CZ-4C R/B 3.1 01:54:50 10° NW 02:01:29 72° NNE 02:09:25 10° ESE
Cosmos 1536 2.9 02:00:32 10° NNW 02:04:33 56° W 02:08:32 10° S
Cosmos 1697 Rocket 3.5 02:01:35 14° WSW 02:06:00 37° NW 02:11:12 10° NNE
Cosmos 1689 Rocket 2.5 02:04:41 10° SSE 02:07:38 66° ENE 02:10:38 10° N
Cosmos 372 Rocket 3.9 02:03:31 10° NNW 02:08:43 82° WSW 02:13:51 10° SSE
Meteor 1-31 Rocket 3.9 02:07:03 10° NNE 02:10:45 46° E 02:14:28 10° S
Cosmos 1980 Rocket 2.6 02:05:36 12° WSW 02:10:46 50° NW 02:16:17 10° NNE
deb Chang Zheng 4 3.9 02:07:00 10° NNE 02:11:19 68° ESE 02:15:35 10° S
Cosmos 2263 Rocket 3.1 02:07:30 10° NW 02:11:57 25° WSW 02:16:26 10° SSW
Cosmos 2278 Rocket 3.7 02:06:53 10° NNW 02:12:11 38° NE 02:17:28 10° ESE
Cosmos 1844 3.7 02:08:21 10° NW 02:13:59 88° WSW 02:19:34 10° SSE
Cosmos 1908 Rocket 4.2 02:09:40 10° N 02:14:07 62° ENE 02:18:33 10° SSE
Cosmos 2173 Rocket 4.0 02:09:42 10° NNW 02:15:58 67° W 02:22:16 10° S
Cosmos 2322 Rocket 2.6 02:11:38 10° SSW 02:17:17 70° ESE 02:22:58 10° NE
USA 32 4.3 02:12:22 10° NNW 02:17:24 47° W 02:22:24 10° SSW
Cosmos 1844 Rocket 2.7 02:12:56 10° NW 02:18:35 73° WSW 02:24:12 10° SSE
PSLV R/B 4.1 02:14:55 10° SSE 02:18:59 82° ENE 02:23:07 10° NNW
Cosmos 1437 Rocket 4.2 02:16:37 10° SSE 02:20:13 41° E 02:23:52 10° NNE
Cosmos 921 Rocket 3.4 02:16:23 10° SW 02:20:24 43° WNW 02:24:26 10° NNE
Cosmos 1544 3.4 02:16:57 10° N 02:20:35 69° ENE 02:24:09 10° SSE
COSMOS 2455 3.8 02:14:57 10° NW 02:20:51 51° NE 02:26:44 10° ESE
ADEOS II 3.8 02:18:33 10° N 02:21:40 16° NW 02:24:46 10° W
RESURS DK-1 4.3 02:19:51 10° NNW 02:23:35 30° NE 02:27:18 10° ESE
Cosmos 1937 Rocket 4.0 02:21:41 10° NW 02:26:20 35° WSW 02:30:58 10° SSW
SL-16 R/B 2.3 02:20:41 10° SSW 02:26:22 89° ESE 02:32:06 10° NE
ARIANE 5 R/B 3.9 02:23:05 10° N 02:26:58 22° NW 02:30:47 10° WSW
ADEOS 3.6 02:22:09 10° NNE 02:27:26 90° WSW 02:32:39 10° SSW
Cosmos 1707 Rocket 3.7 02:24:38 10° SSW 02:28:53 53° WNW 02:33:10 10° N
Cosmos 2150 Rocket 4.1 02:23:39 10° NNW 02:29:11 86° WSW 02:34:37 10° SSE
CZ-3B R/B 3.4 02:25:30 10° W 02:29:23 87° S 02:45:58 10° E
Cosmos 1812 3.7 02:27:16 10° SW 02:30:38 28° WNW 02:34:00 10° N
Cosmos 1666 3.9 02:27:54 10° NW 02:30:58 23° W 02:34:00 10° SW
IDEFIX/ARIANE 42P 3.8 02:27:16 10° N 02:31:32 25° NW 02:35:47 10° WSW
USA 305 3.0 02:27:33 10° WSW 02:31:48 73° S 02:36:03 10° E
Cosmos 1125 Rocket 3.8 02:27:45 10° NNW 02:33:05 76° ENE 02:38:22 10° SSE
Cosmos 2061 Rocket 4.1 02:28:23 10° NNW 02:34:48 71° W 02:41:12 10° S
USA 306 3.0 02:31:44 10° W 02:36:00 73° S 02:40:14 10° E
